Regional Weather Roundup
Issued by NWS

Home | Current Version | Previous Version | Graphics & Text | Print | Product List | Glossary Off
Versions: 1 2 3 4 5 6 7 8 9 10 11 12 13 14 15 16 17 18 19 20 21 22 23 24 25 26 27 28 29 30 31 32 33 34 35 36 37 38 39 40 41 42 43 44 45 46 47 48 49 50

000
ASUS43 KMPX 300101
RWRMN
WEATHER ROUNDUP FOR MINNESOTA
NATIONAL WEATHER SERVICE TWIN CITIES/CHANHASSEN MN
800 PM CDT FRI MAY 29 2015


NOTE: "FAIR" INDICATES FEW OR NO CLOUDS BELOW 12,000 FEET WITH NO
SIGNIFICANT WEATHER AND/OR OBSTRUCTIONS TO VISIBILITY. N/A MEANS
CURRENT SKY AND/OR WEATHER CONDITIONS ARE NOT AVAILABLE.

MNZ060>063-068>070-300200-
   Twin Cities Metro

CITY           SKY/WX    TMP DP  RH WIND       PRES   REMARKS
TWIN CITIES    LGT RAIN  58  55  90 N21G26    29.95R
ST PAUL        LGT RAIN  58  55  90 N16G25    29.96R
CRYSTAL        LGT RAIN  57  53  86 N16G23    29.97R
BLAINE         CLOUDY    57  55  94 N15G22    29.97R
LAKEVILLE      DRIZZLE   61  59  94 N12       29.94R
EDEN PRAIRIE   CLOUDY    57  54  89 N13G22    29.95R
SOUTH ST PAUL  LGT RAIN  59  57  94 N15G22    29.95R
LAKE ELMO      DRIZZLE   59  57  94 N14       29.96R
$$
MNZ001>005-007-008-013>017-022>024-027-028-300200-
   Northwest Minnesota

CITY           SKY/WX    TMP DP  RH WIND       PRES   REMARKS
BEMIDJI        MOCLDY    53  38  56 N10G18    30.12R
HALLOCK        SUNNY     50  27  40 N21G26    30.25R
ROSEAU         CLEAR     50  34  53 N17G24    30.20R
WARROAD        CLEAR     48  36  61 NW14G20   30.19R
THIEF RVR FALL PTCLDY    50  32  50 N18G24    30.20R
CROOKSTON      SUNNY     52  36  54 N18G24    30.21R
FOSSTON        PTCLDY    50  37  62 N17       30.16R
DETROIT LAKES  MOCLDY    54  41  62 N15G24    30.14R
MOORHEAD       PTCLDY    54  37  54 N22G28    30.17R
PARK RAPIDS    MOCLDY    55  39  54 N17       30.08R
MAHNOMEN       FAIR      52  41  64 N18G26    30.14R
$$
MNZ006-009>011-018-025>026-300200-
   North Central Minnesota

CITY           SKY/WX    TMP DP  RH WIND       PRES   REMARKS
BAUDETTE       CLEAR     51  35  54 N15G23    30.15
FLAG ISLAND    MOCLDY    50  34  53 N23G29    30.17R
INTL FALLS     CLOUDY    50  39  66 N8        30.12R
WASKISH        MOCLDY    52  39  62 N9G18     30.14R
BIG FORK       MOCLDY    52  39  62 N8        30.10R
LONGVILLE      CLOUDY    54  41  62 N12G18    30.07R
GRAND RAPIDS   CLOUDY    54  41  62 N12       30.06R
CRANE LAKE     CLOUDY    50  41  71 N8        30.10S
COOK           CLOUDY    50  41  71 NW7       30.08S
WALKER         FAIR      52  39  62 N9        30.09R
$$
MNZ012-019>021-037-300200-
   Northeast Minnesota

CITY           SKY/WX    TMP DP  RH WIND       PRES   REMARKS
DULUTH         CLOUDY    53  45  74 N14G23    30.01R
HIBBING        CLOUDY    51  42  71 N17       30.06R
EVELETH        CLOUDY    52  43  71 N10G16    30.06R
DULUTH HARBOR  CLOUDY    54  48  82 N13       30.02R
TWO HARBORS    CLOUDY    55  46  71 N8        30.00R
SILVER BAY     CLOUDY    54  46  76 N7        30.00R
GRAND MARAIS     N/A     58  48  69 VRB3      29.97R
G MARAIS ARPRT CLOUDY    52  45  76 NW8G16    29.99R
$$
MNZ029>031-032-039>041-046>048-054>057-064-300200-
   West Central Minnesota

CITY           SKY/WX    TMP DP  RH WIND       PRES   REMARKS
FERGUS FALLS   MOCLDY    54  41  62 N15G26    30.12R
WHEATON        CLOUDY    52  41  66 N21G29    30.15R
MORRIS         MOCLDY    52  43  71 N21       30.09R
ALEXANDRIA     CLOUDY    53  43  68 N12       30.09R
ELBOW LAKE     FAIR      52  44  72 N17       30.11R
WADENA         CLOUDY    54  43  66 N10       30.08R
GLENWOOD       CLOUDY    54  45  71 N15G23    30.08R
APPLETON       CLOUDY    54  45  71 N15G23    30.10R
BENSON         MOCLDY    54  45  71 NE13G23   30.08R
ORTONVILLE     CLOUDY    50  43  76 N22G28    30.12R
MADISON        CLOUDY    50  43  76 N23       30.11R
WILLMAR        FAIR      55  48  76 N18G24    30.06R
$$
MNZ033>034-036-042>043-049>051-058-059-300200-
   Central Minnesota

CITY           SKY/WX    TMP DP  RH WIND       PRES   REMARKS
ST CLOUD       CLOUDY    53  47  79 N13       30.03R
SAUK CENTRE    FAIR      52  44  74 N14G23    30.06R
PAYNESVILLE    CLOUDY    50  46  86 NW10G18   30.05R
AITKIN         CLOUDY    54  45  71 NW9       30.03S
PINE RIVER     CLOUDY    54  43  66 N12G23    30.10R
BRAINERD       CLOUDY    53  43  68 N16       30.05R
STAPLES        CLOUDY    54  43  66 N10       30.07R
LONG PRAIRIE   FAIR      52  43  71 NW12G21   30.07R
LITTLE FALLS   CLOUDY    52  43  71 N6        30.05R
LITCHFIELD     CLOUDY    55  52  88 N16       30.04R
BUFFALO        DRIZZLE   54  50  88 N12G18    30.02R
MAPLE LAKE     LGT RAIN  53  51  93 N16G22    30.03R
$$
MNZ037-044-045-052-053-300200-
   East Central Minnesota

CITY           SKY/WX    TMP DP  RH WIND       PRES   REMARKS
PRINCETON      DRIZZLE   54  50  87 N12       30.02R
MORA           CLOUDY    52  46  82 N7        30.03R
CAMBRIDGE      DRIZZLE   55  46  71 N7        29.99R
RUSH CITY      CLOUDY    54  52  92 N10       30.00R
MOOSE LAKE     CLOUDY    54  46  76 N7        30.00R
HINCKLEY       CLOUDY    54  52  94 N7        30.00R
CLOQUET        CLOUDY    54  43  66 N10G22    30.02R
MCGREGOR       CLOUDY    54  46  76 N9        30.04R
$$
MNZ071>073-080-081-089-090-097-098-300200-
   Southwest Minnesota

CITY           SKY/WX    TMP DP  RH WIND       PRES   REMARKS
MONTEVIDEO     CLOUDY    54  48  82 N15       30.08R
GRANITE FALLS  CLOUDY    52  47  83 NW16G23   30.08R
CANBY          CLOUDY    49  43  81 NW18      30.12R
MARSHALL       CLOUDY    48  41  76 N22       30.08R
REDWOOD FALLS  CLOUDY    54  50  86 N13G23    30.03R
OLIVIA         CLOUDY    52  46  82 N12G22    30.04R
PIPESTONE      CLOUDY    48  45  87 N17G23    30.08R
WINDOM         DRIZZLE   52  52 100 NW21G29   30.02R
WORTHINGTON    CLOUDY    50  45  81 N25G31    30.04R
JACKSON        CLOUDY    52  52 100 NW20G29   30.00R FOG
TRACY          LGT RAIN  49  48  97 NW20G25   30.07R
SLAYTON        CLOUDY    47  47 100 N21G26    30.07R FOG
$$
MNZ065>067-074>077-082>085-091>093-300200-
   South Central Minnesota

CITY           SKY/WX    TMP DP  RH WIND       PRES   REMARKS
MANKATO        CLOUDY    61  55  82 N23       29.95R
NEW ULM        CLOUDY    55  54  94 N16       30.00R
ST JAMES       LGT RAIN  57  55  94 NW22G28   30.00R
FAIRMONT       CLOUDY    57  54  88 NW21      29.96R
GLENCOE        LGT RAIN  56  55  96 N12G20    29.99R
FARIBAULT      RAIN      63  61  94 N9        29.93R
OWATONNA       DRIZZLE   64  61  88 N12       29.92R
WASECA         HVY RAIN  63  61  94 N13       29.93R
ALBERT LEA     CLOUDY    64  63  94 N7        29.90S
$$
MNZ078>079-086>088-094>096-300200-
   Southeast Minnesota

CITY           SKY/WX    TMP DP  RH WIND       PRES   REMARKS
ROCHESTER      LGT RAIN  64  62  93 N7        29.91R FOG
RED WING       RAIN      64  63  94 NE7       29.90R
STANTON        DRIZZLE   64  61  88 N12       29.91R
DODGE CENTER   RAIN      64  63  94 N9        29.91R
WINONA         LGT RAIN  66  64  94 CALM      29.89S
AUSTIN         CLOUDY    64  61  88 N7        29.90R
PRESTON        LGT RAIN  63  62  94 CALM      29.91R
$$
ABBREVIATIONS USED IN REMARKS
   TC - TEMPERATURES IN CELSIUS
  WCI - WIND CHILL INDEX
   HX - HEAT INDEX
  VSB - VISIBILITY
$$


USA.gov is the U.S. government's official web portal to all federal, state and local government web resources and services.